TimeEDT,TemperatureF,Dew PointF,Humidity,Sea Level PressureIn,VisibilityMPH,Wind Direction,Wind SpeedMPH,Gust SpeedMPH,PrecipitationIn,Events,Conditions,WindDirDegrees,DateUTC
12:00 AM,57.2,55.4,94,29.75,15.0,South,5.8,-,N/A,Rain,Light Rain Showers,180,2013-10-17 04:00:00
1:00 AM,57.2,55.4,94,29.74,15.0,SSW,8.1,-,N/A,Rain,Light Rain Showers,210,2013-10-17 05:00:00
2:00 AM,57.2,57.2,100,29.73,15.0,SSW,10.4,-,N/A,Rain,Light Rain Showers,200,2013-10-17 06:00:00
3:00 AM,57.2,55.4,94,29.73,15.0,SW,11.5,20.7,N/A,Rain,Light Rain Showers,220,2013-10-17 07:00:00
4:00 AM,57.2,55.4,94,29.73,25.0,SW,5.8,-,N/A,,Mostly Cloudy,230,2013-10-17 08:00:00
5:00 AM,55.4,53.6,94,29.75,15.0,SW,6.9,-,N/A,,Mostly Cloudy,230,2013-10-17 09:00:00
5:23 AM,55.4,53.6,94,29.75,12.0,SW,5.8,-,N/A,,Overcast,220,2013-10-17 09:23:00
5:50 AM,53.6,53.6,100,29.76,10.0,WSW,6.9,-,N/A,,Overcast,250,2013-10-17 09:50:00
6:00 AM,53.6,53.6,100,29.76,10.0,WSW,5.8,-,N/A,,Overcast,240,2013-10-17 10:00:00
7:00 AM,51.8,50.0,94,29.77,25.0,SW,6.9,-,N/A,,Partly Cloudy,230,2013-10-17 11:00:00
8:00 AM,51.8,48.2,88,29.79,25.0,SW,6.9,-,N/A,,Mostly Cloudy,230,2013-10-17 12:00:00
9:00 AM,53.6,50.0,88,29.80,25.0,WSW,8.1,-,N/A,,Mostly Cloudy,250,2013-10-17 13:00:00
10:00 AM,53.6,50.0,88,29.80,20.0,WSW,8.1,-,N/A,,Mostly Cloudy,250,2013-10-17 14:00:00
11:00 AM,55.4,50.0,82,29.81,45.0,SW,9.2,-,N/A,,Mostly Cloudy,230,2013-10-17 15:00:00
12:00 PM,57.2,50.0,77,29.81,35.0,WSW,6.9,-,N/A,,Mostly Cloudy,250,2013-10-17 16:00:00
1:00 PM,59.0,50.0,72,29.79,45.0,West,9.2,18.4,N/A,,Mostly Cloudy,270,2013-10-17 17:00:00
2:00 PM,59.0,46.4,63,29.78,45.0,West,6.9,-,N/A,,Mostly Cloudy,260,2013-10-17 18:00:00
3:00 PM,60.8,46.4,59,29.78,40.0,WSW,8.1,-,N/A,,Mostly Cloudy,250,2013-10-17 19:00:00
4:00 PM,60.8,44.6,55,29.78,40.0,WSW,8.1,-,N/A,,Scattered Clouds,240,2013-10-17 20:00:00
5:00 PM,59.0,44.6,59,29.77,40.0,SW,5.8,-,N/A,,Scattered Clouds,230,2013-10-17 21:00:00
6:00 PM,57.2,46.4,67,29.77,45.0,SSE,3.5,-,N/A,,Mostly Cloudy,160,2013-10-17 22:00:00
7:00 PM,51.8,46.4,82,29.76,25.0,Calm,Calm,-,N/A,,Mostly Cloudy,0,2013-10-17 23:00:00
8:00 PM,53.6,46.4,77,29.76,25.0,Calm,Calm,-,N/A,,Mostly Cloudy,0,2013-10-18 00:00:00
9:00 PM,50.0,46.4,87,29.76,25.0,South,4.6,-,N/A,,Mostly Cloudy,190,2013-10-18 01:00:00
10:00 PM,51.8,46.4,82,29.74,25.0,Calm,Calm,-,N/A,,Overcast,0,2013-10-18 02:00:00
11:00 PM,50.0,48.2,94,29.73,25.0,Calm,Calm,-,N/A,,Overcast,0,2013-10-18 03:00:00